[[{"header":{"parameterUnit":"m.s-1","parameterCategory":1,"la1":30.2991,"la2":30.254,"lo1":-89.0895,"lo2":-89.0444,"dy":0.0017,"dx":0.0017,"nx":28,"ny":28,"refTime":"2024-03-04T09:00:00:Z","depth":0,"parameterNumber":2,"parameterNumberName":"U-component_of_WINDS"},"data":[0,0,0,0,0,0,0,0,0,0,0,0,0,0,0,0,0,0,0,0,0,0,0,0,0,0,0,0,0,0,0,0,0,0,0,0,0,0,0,0,0,0,0,0,0,0,0,0,0,0,0,0,0,0,0,0,0,0,-6.2078,-6.2079,0,-6.2142,-6.2143,-6.2143,-6.2035,-6.2031,-6.2027,-6.2024,-6.209,-6.2095,-6.21,0,0,0,0,0,0,0,0,0,0,0,0,0,-6.1864,-6.1869,-6.2078,-6.2079,-6.2079,-6.2142,-6.2143,-6.2143,-6.2035,-6.2031,-6.2026,-6.2022,-6.2088,-6.2094,-6.2101,0,0,0,0,0,0,0,0,0,0,0,0,0,-6.1946,-6.187,-6.2078,-6.2033,-6.203,-6.2141,-6.2143,-6.2144,-6.2036,-6.2031,-6.2025,-6.202,-6.2086,-6.2094,-6.2101,-6.226,0,0,-6.2125,-6.2129,0,0,0,0,0,0,0,0,-6.1941,-6.1954,-6.2039,-6.2036,-6.2033,-6.2075,-6.2091,-6.2183,-6.2038,-6.2034,-6.2024,-6.2017,-6.2089,-6.2097,-6.2121,-6.2263,-6.2266,-6.2126,-6.2131,-6.2134,-6.2136,0,0,0,0,0,0,0,-6.1936,-6.195,-6.2103,-6.204,-6.2037,-6.2011,-6.2016,-6.2108,-6.2092,-6.2034,-6.2026,-6.2035,-6.2087,-6.2113,-6.2121,-6.2267,-6.2126,-6.2133,-6.2137,-6.214,-6.2544,-6.255,0,0,0,0,0,0,-6.1935,-6.1946,-6.2101,-6.2105,-6.1972,-6.2019,-6.2025,-6.2067,-6.209,-6.2089,-6.204,-6.203,-6.2103,-6.2112,-6.2123,-6.231,-6.2134,-6.2141,-6.2146,-6.2538,-6.2545,-6.2552,0,0,0,0,0,0,-6.1931,-6.195,-6.2098,-6.2024,-6.2041,-6.2028,-6.2076,-6.2071,-6.2097,-6.2095,-6.2092,-6.207,-6.2099,-6.2112,-6.2227,-6.2311,-6.2145,-6.2152,-6.2531,-6.254,-6.2549,-6.2685,0,0,0,0,0,0,-6.1926,-6.1949,-6.2009,-6.2026,-6.2045,-6.2201,-6.2081,-6.2076,-6.2111,-6.2099,-6.2122,-6.2121,-6.2096,-6.2216,-6.2235,-6.2319,-6.2158,-6.2523,-6.2535,-6.2546,-6.2673,-6.2698,-6.2719,0,0,0,0,0,-6.1918,-6.2044,-6.2012,-6.2031,-6.2119,-6.2206,-6.2216,-6.2184,-6.2118,-6.2178,-6.2177,-6.212,-6.23,-6.2229,-6.2249,-6.2336,-6.2518,-6.2532,-6.2545,-6.2663,-6.2693,-6.2719,0,0,0,0,0,0,-6.2036,-6.2045,-6.201,-6.2145,-6.2176,-6.2187,-6.2261,-6.2217,-6.2267,-6.2253,-6.2212,-6.2218,-6.2342,-6.2351,-6.2272,-6.2492,-6.2398,-6.2416,-6.248,-6.2509,-6.2532,-6.2525,-6.2164,0,0,0,0,0,-6.2078,-6.2148,-6.2152,-6.2271,-6.2289,-6.2273,-6.231,-6.2283,-6.2312,-6.2325,-6.2332,-6.2363,-6.2426,-6.2469,-6.2527,-6.2676,-6.2679,-6.2746,-6.2769,-6.2788,-6.2803,-6.2883,-6.2912,-6.2597,-6.2597,-6.2596,0,0,-6.2165,-6.2179,-6.2225,-6.2295,-6.2316,-6.2389,-6.2284,-6.2366,-6.242,-6.2337,-6.2445,-6.2453,-6.2485,-6.2617,-6.2676,-6.2629,-6.2892,-6.2805,-6.282,-6.2825,-6.29,-6.293,-6.2956,-6.2606,-6.2604,-6.2603,0,0,-6.236,-6.2378,-6.2479,-6.2502,-6.2535,-6.2524,-6.2549,-6.2568,-6.257,-6.2678,-6.2618,-6.2683,-6.2793,-6.2819,-6.2846,-6.3056,-6.3006,-6.3077,-6.3195,-6.3273,-6.3298,-6.332,-6.3394,-6.3421,-6.3093,-6.3093,-6.3093,0,-6.2463,-6.257,-6.2536,-6.2623,-6.2656,-6.2586,-6.2689,-6.2713,-6.2764,-6.2788,-6.2735,-6.2873,-6.289,-6.3028,-6.3079,-6.3105,-6.3131,-6.3072,-6.3298,-6.3319,-6.3339,-6.3409,-6.3437,-6.3101,-6.31,-6.31,-6.3099,0,-6.2696,-6.2772,-6.285,-6.29,-6.2943,-6.3037,-6.3018,-6.3066,-6.3037,-6.3033,-6.3145,-6.3164,-6.3225,-6.3257,-6.3229,-6.3391,-6.3361,-6.3304,-6.3208,-6.3378,-6.3443,-6.3469,-6.3113,-6.311,-6.3108,-6.3106,0,0,-6.2961,-6.2995,-6.3024,-6.3047,-6.308,-6.3138,-6.3231,-6.3291,-6.3332,-6.3372,-6.3447,-6.3544,-6.3492,-6.3524,-6.3499,-6.3569,-6.3733,-6.3503,-6.3503,-6.3543,-6.3913,-6.3953,-6.3985,-6.3702,-6.3707,-6.3711,-6.3909,0,-6.3153,-6.3311,-6.3286,-6.3439,-6.3509,-6.3447,-6.3527,-6.3557,-6.3557,-6.3617,-6.3617,-6.3686,-6.3613,-6.3631,-6.3697,-6.3699,-6.3806,-6.3685,-6.3771,-6.3775,-6.3761,-6.4019,-6.4061,-6.4248,-6.3935,-6.3939,-6.3942,0,-6.3397,-6.3446,-6.3607,-6.3631,-6.3659,-6.3732,-6.3786,-6.3845,-6.3878,-6.3874,-6.3911,-6.3875,-6.3968,-6.3874,-6.4002,-6.392,-6.3955,-6.3962,-6.3968,-6.3972,-6.3866,-6.4028,-6.4306,-6.4334,-6.3982,-6.3979,-6.3976,0,-6.3573,-6.3679,-6.3789,-6.3811,-6.3842,-6.3895,-6.391,-6.3939,-6.3977,-6.4026,-6.4051,-6.411,-6.4142,-6.4189,-6.417,-6.4103,-6.4302,-6.4206,-6.43,-6.43,-6.4341,-6.4338,-6.4626,-6.4369,-6.4368,-6.4368,-6.4367,0,-6.3788,-6.3888,-6.3868,-6.3935,-6.4047,-6.4018,-6.4129,-6.4137,-6.4164,-6.4232,-6.4183,-6.4249,-6.4221,-6.4285,-6.4272,-6.438,-6.4395,-6.4394,-6.4388,-6.4396,-6.4396,-6.4415,-6.4401,-6.4375,-6.4374,-6.4372,-6.4371,0,-6.4001,-6.3991,-6.4107,-6.4129,-6.4137,-6.4218,-6.4236,-6.43,-6.4298,-6.4385,-6.4404,-6.4401,-6.4474,-6.4461,-6.4542,-6.4533,-6.4668,-6.4648,-6.4656,-6.465,-6.4744,-6.4734,-6.5052,-6.5092,-6.4812,-6.4814,-6.4817,0,-6.4137,-6.4212,-6.4243,-6.4286,-6.4306,-6.4375,-6.4415,-6.4391,-6.4435,-6.4481,-6.454,-6.4609,-6.4662,-6.4783,-6.4788,-6.485,-6.4829,-6.4937,-6.4838,-6.4844,-6.4828,-6.4823,-6.483,-6.4955,-6.4958,-6.4961,-6.4963,0,-6.4379,-6.4371,-6.443,-6.449,-6.4539,-6.4585,-6.4625,-6.4663,-6.4643,-6.4695,-6.477,-6.4812,-6.4896,-6.4965,-6.5024,-6.504,-6.4999,-6.4995,-6.502,-6.5027,-6.5027,-6.5026,-6.4706,-6.4987,-6.4984,-6.4983,-6.4981,-6.498,-6.4555,-6.462,-6.4653,-6.4721,-6.475,-6.479,-6.4851,-6.4858,-6.492,-6.4986,-6.4969,-6.5054,-6.5088,-6.5163,-6.5187,-6.5254,-6.5214,-6.525,-6.5258,-6.5267,-6.5277,-6.502,-6.5265,-6.5264,-6.5263,-6.5263,-6.5262,0,-6.4793,-6.4812,-6.4875,-6.4934,-6.4989,-6.4948,-6.4992,-6.504,-6.5115,-6.5151,-6.5206,-6.5293,-6.5361,-6.5373,-6.5438,-6.5489,-6.5471,-6.5506,-6.55,-6.5505,-6.531,-6.5281,-6.5519,-6.5519,-6.5519,-6.5519,-6.5519,-6.5519,-6.4922,-6.503,-6.5027,-6.515,-6.5168,-6.5251,-6.5279,-6.5316,-6.5345,-6.5444,-6.5501,-6.5509,-6.5536,-6.5603,-6.5664,-6.5666,-6.5691,-6.5734,-6.5728,-6.5545,-6.5519,-6.5494,-6.5467,-6.574,-6.574,-6.5917,-6.5919,-6.592]},{"header":{"parameterUnit":"m.s-1","parameterCategory":1,"la1":30.2991,"la2":30.254,"lo1":-89.0895,"lo2":-89.0444,"dy":0.0017,"dx":0.0017,"nx":28,"ny":28,"refTime":"2024-03-04T09:00:00:Z","depth":0,"parameterNumber":3,"parameterNumberName":"V-component_of_WINDS"},"data":[0,0,0,0,0,0,0,0,0,0,0,0,0,0,0,0,0,0,0,0,0,0,0,0,0,0,0,0,0,0,0,0,0,0,0,0,0,0,0,0,0,0,0,0,0,0,0,0,0,0,0,0,0,0,0,0,0,0,1.5827,1.5827,0,1.5874,1.5875,1.5876,1.5919,1.592,1.592,1.5921,1.5965,1.5965,1.5966,0,0,0,0,0,0,0,0,0,0,0,0,0,1.5771,1.5772,1.5827,1.5827,1.5828,1.5874,1.5875,1.5876,1.5919,1.592,1.592,1.5921,1.5964,1.5965,1.5966,0,0,0,0,0,0,0,0,0,0,0,0,0,1.5805,1.5772,1.5827,1.5855,1.5858,1.5874,1.5875,1.5876,1.5919,1.592,1.592,1.5921,1.5964,1.5965,1.5966,1.5956,0,0,1.5969,1.597,0,0,0,0,0,0,0,0,1.5803,1.5807,1.5851,1.5853,1.5857,1.5892,1.5872,1.5903,1.5919,1.5896,1.5921,1.5922,1.5939,1.5942,1.5949,1.5958,1.596,1.5969,1.597,1.597,1.5971,0,0,0,0,0,0,0,1.58,1.5805,1.5846,1.5851,1.5855,1.5865,1.5871,1.5878,1.5912,1.5898,1.5901,1.5906,1.5941,1.5948,1.5951,1.5961,1.5969,1.597,1.5971,1.5971,1.5966,1.5965,0,0,0,0,0,0,1.5794,1.5803,1.5844,1.5847,1.5831,1.5865,1.5872,1.588,1.5912,1.5918,1.5906,1.5908,1.5946,1.595,1.5953,1.5944,1.597,1.5971,1.5972,1.5967,1.5966,1.5965,0,0,0,0,0,0,1.5793,1.5797,1.5842,1.5826,1.5832,1.5866,1.5874,1.588,1.5887,1.5918,1.5924,1.5907,1.5947,1.5951,1.5956,1.5946,1.5972,1.5973,1.5968,1.5966,1.5965,1.5927,0,0,0,0,0,0,1.5791,1.5797,1.5793,1.5825,1.5833,1.5845,1.5873,1.588,1.589,1.5893,1.5921,1.5926,1.5948,1.5954,1.5957,1.5948,1.5973,1.5968,1.5967,1.5966,1.5929,1.5924,1.5921,0,0,0,0,0,1.5789,1.5779,1.5793,1.5798,1.583,1.5844,1.5849,1.5875,1.5889,1.5886,1.5906,1.5925,1.5947,1.5954,1.5958,1.5949,1.5969,1.5967,1.5966,1.5931,1.5925,1.5921,0,0,0,0,0,0,1.5742,1.5784,1.5799,1.58,1.5819,1.5852,1.5848,1.5868,1.5882,1.5885,1.5916,1.5922,1.5923,1.5937,1.5944,1.5942,1.5961,1.596,1.5933,1.5928,1.5924,1.592,1.5974,0,0,0,0,0,1.5733,1.5742,1.5777,1.5774,1.5783,1.5814,1.5821,1.5841,1.5861,1.5868,1.5889,1.5906,1.5917,1.5924,1.5935,1.5932,1.5939,1.5928,1.5924,1.592,1.5918,1.5919,1.5915,1.5959,1.596,1.596,0,0,1.5712,1.5735,1.5739,1.5766,1.5782,1.5791,1.582,1.5827,1.5834,1.5869,1.5875,1.5891,1.5913,1.5914,1.5915,1.5925,1.5908,1.5918,1.5915,1.5915,1.5917,1.5913,1.5909,1.5958,1.5959,1.5959,0,0,1.5678,1.5697,1.5698,1.5715,1.5741,1.5762,1.5762,1.5793,1.5806,1.5814,1.584,1.5848,1.5866,1.5881,1.5891,1.5867,1.5886,1.587,1.5848,1.5848,1.5844,1.5841,1.5833,1.583,1.5869,1.5868,1.5868,0,1.5648,1.5663,1.5695,1.5702,1.5713,1.5748,1.5749,1.5763,1.5791,1.5798,1.5809,1.5835,1.5851,1.5857,1.5852,1.5858,1.586,1.5866,1.5843,1.584,1.5838,1.583,1.5827,1.5866,1.5867,1.5867,1.5867,0,1.5626,1.5636,1.5634,1.5662,1.5674,1.5677,1.5709,1.5716,1.5736,1.5756,1.5764,1.5786,1.5804,1.5807,1.5824,1.5815,1.5821,1.5837,1.5856,1.5831,1.5825,1.5822,1.5863,1.5864,1.5865,1.5865,0,0,1.5562,1.5611,1.5609,1.5624,1.5657,1.5665,1.5671,1.569,1.5696,1.5715,1.5721,1.5737,1.5753,1.5764,1.5784,1.5785,1.5766,1.5801,1.5802,1.5794,1.5758,1.5746,1.5742,1.5779,1.5779,1.5778,1.5757,0,1.5534,1.5548,1.5578,1.5582,1.5592,1.5627,1.5632,1.5653,1.5672,1.5684,1.5705,1.5716,1.5736,1.5744,1.5746,1.5767,1.5759,1.5769,1.5784,1.5784,1.5777,1.5739,1.5725,1.5703,1.5754,1.5754,1.5754,0,1.5502,1.5521,1.5527,1.5562,1.5568,1.5572,1.5594,1.5604,1.5629,1.5643,1.5658,1.5681,1.5689,1.5707,1.5719,1.5726,1.5734,1.5745,1.5745,1.5747,1.5767,1.5739,1.5697,1.5694,1.575,1.575,1.5751,0,1.5455,1.5483,1.5491,1.5502,1.5542,1.5545,1.5562,1.5587,1.5598,1.5617,1.5624,1.5643,1.5653,1.5666,1.5694,1.5705,1.5703,1.5723,1.5714,1.5714,1.5711,1.5711,1.567,1.5717,1.5717,1.5717,1.5717,0,1.542,1.5422,1.5471,1.5475,1.5479,1.5514,1.5517,1.5537,1.556,1.5569,1.5599,1.5607,1.5643,1.5655,1.5676,1.5683,1.5687,1.5699,1.5704,1.5696,1.5694,1.57,1.5702,1.5716,1.5716,1.5717,1.5717,0,1.5368,1.54,1.5411,1.545,1.546,1.5461,1.5494,1.55,1.5523,1.5534,1.5539,1.5574,1.5589,1.5619,1.5642,1.5656,1.5658,1.5668,1.5651,1.5654,1.5644,1.5644,1.5605,1.5601,1.5651,1.565,1.565,0,1.5343,1.5346,1.5387,1.5396,1.5413,1.5427,1.5439,1.5474,1.5485,1.5515,1.5517,1.5536,1.5553,1.5576,1.5603,1.5621,1.5631,1.5616,1.5634,1.5626,1.5631,1.5631,1.5632,1.5612,1.5611,1.5611,1.561,0,1.5296,1.5313,1.533,1.5354,1.5368,1.5388,1.5409,1.5414,1.5454,1.5465,1.5483,1.5496,1.5522,1.554,1.5562,1.5579,1.5601,1.5605,1.5604,1.5595,1.5584,1.559,1.564,1.5605,1.5606,1.5606,1.5606,1.5606,1.5257,1.5262,1.5293,1.5311,1.5332,1.5352,1.536,1.5385,1.5401,1.5426,1.5446,1.5462,1.5488,1.5522,1.5537,1.555,1.556,1.5558,1.5558,1.5557,1.5554,1.5583,1.5554,1.5554,1.5554,1.5555,1.5555,0,1.5212,1.5234,1.5251,1.5282,1.5297,1.5319,1.5344,1.5355,1.537,1.5393,1.541,1.5431,1.545,1.548,1.55,1.5505,1.5516,1.5509,1.5509,1.5513,1.5543,1.5542,1.55,1.55,1.55,1.55,1.55,1.55,1.519,1.5201,1.5222,1.5243,1.5265,1.5283,1.5296,1.5314,1.5334,1.5357,1.5373,1.5394,1.542,1.5444,1.5461,1.547,1.5476,1.5466,1.5477,1.5505,1.551,1.5515,1.5514,1.5467,1.5467,1.5446,1.5446,1.5445]}]]